K6HFP Weather Reports


time (UTC)temp
F
wind
direction
speed
knots
gust
knots
rain 1hr
in
rain 24hr
in
rain mn
in
humidity
%
barometer
mb
20260506091606 56 88 0.0 0.9 0.00 0.00 0.00 87 1017.8
20260506091103 56 79 0.0 0.9 0.00 0.00 0.00 87 1017.6
20260506090601 56 79 0.9 0.9 0.00 0.00 0.00 87 1017.7
20260506090056 56 74 0.0 0.9 0.00 0.00 0.00 87 1017.4
20260506085554 56 84 0.9 0.9 0.00 0.00 0.00 87 1017.7
20260506085050 57 77 0.9 1.7 0.00 0.00 0.00 87 1017.8
20260506084547 57 88 0.9 1.7 0.00 0.00 0.00 87 1017.4
20260506084043 57 115 0.9 1.7 0.00 0.00 0.00 87 1017.6
20260506083540 57 89 0.0 0.9 0.00 0.00 0.00 87 1017.6
20260506083038 57 124 0.9 0.9 0.00 0.00 0.00 87 1017.6
20260506082534 57 116 0.9 0.9 0.00 0.00 0.00 86 1017.7
20260506082030 57 119 0.9 0.9 0.00 0.00 0.00 86 1017.9
20260506081529 57 123 0.0 0.9 0.00 0.00 0.00 86 1017.4
20260506081026 57 116 0.0 0.9 0.00 0.00 0.00 85 1017.4
20260506080523 57 126 0.9 0.9 0.00 0.00 0.00 85 1017.6
20260506073506 57 127 0.0 1.7 0.00 0.00 0.00 84 1017.3
20260506073004 57 127 0.9 0.9 0.00 0.00 0.00 83 1017.4
20260506072501 57 98 0.0 0.9 0.00 0.00 0.00 83 1017.1
20260506071959 57 92 0.0 0.9 0.00 0.00 0.00 83 1017.1
20260506071456 57 101 0.9 0.9 0.00 0.00 0.00 82 1017.0
20260506070953 57 94 0.0 0.9 0.00 0.00 0.00 82 1017.3
20260506070450 57 86 0.0 0.9 0.00 0.00 0.00 82 1016.9
20260506062428 58 104 0.9 0.9 0.00 0.02 0.02 80 1016.7
20260506061923 58 82 0.0 0.9 0.00 0.02 0.02 80 1017.0
20260506061420 58 95 0.9 1.7 0.00 0.02 0.02 80 1016.8
20260506060918 58 88 0.0 0.9 0.00 0.02 0.02 80 1016.8
20260506060416 58 109 1.7 2.6 0.00 0.02 0.02 80 1016.6
20260506051348 58 56 0.9 1.7 0.00 0.02 0.02 77 1016.4
20260506050845 59 47 0.9 0.9 0.00 0.02 0.02 78 1016.1
20260506050343 59 67 0.9 0.9 0.00 0.02 0.02 76 1016.2
20260506044833 58 90 0.0 0.9 0.00 0.02 0.02 78 1016.0
20260506044331 58 73 0.9 1.7 0.00 0.02 0.02 77 1015.8
20260506043828 58 79 0.9 2.6 0.00 0.02 0.02 78 1016.1
20260506043325 58 85 1.7 1.7 0.00 0.02 0.02 79 1015.7
20260506042823 58 91 1.7 2.6 0.00 0.02 0.02 79 1016.0
20260506042322 58 97 1.7 1.7 0.00 0.02 0.02 79 1015.6
20260506041821 58 100 0.9 0.9 0.00 0.02 0.02 81 1015.7
20260506041317 58 92 0.0 0.9 0.00 0.02 0.02 81 1015.7
20260506040814 58 91 0.0 0.9 0.00 0.02 0.02 81 1015.6
20260506040311 58 155 1.7 1.7 0.00 0.02 0.02 80 1015.4
20260506035808 58 101 1.7 1.7 0.00 0.02 0.02 81 1015.3
20260506035306 58 88 0.9 1.7 0.00 0.02 0.02 81 1015.4
20260506034802 58 96 0.9 2.6 0.00 0.02 0.02 81 1015.3
20260506034259 58 86 0.9 0.9 0.00 0.02 0.02 81 1015.2
20260506033756 58 71 0.9 1.7 0.00 0.02 0.02 80 1015.1
20260506033253 58 87 0.0 0.0 0.00 0.02 0.02 80 1015.0
20260506032750 58 93 0.0 0.9 0.00 0.02 0.02 80 1014.9
20260506032247 58 101 0.0 0.9 0.00 0.02 0.02 80 1014.9
20260506031743 58 88 0.0 0.0 0.00 0.02 0.02 79 1014.8
20260506031241 58 80 0.9 0.9 0.00 0.02 0.02 79 1014.9
20260506030739 58 55 0.0 0.9 0.00 0.02 0.02 80 1014.9
20260506030236 58 120 0.9 0.9 0.00 0.02 0.02 80 1014.6
20260506025733 58 92 0.0 0.9 0.00 0.02 0.02 82 1014.7
20260506025229 58 141 1.7 1.7 0.00 0.02 0.02 82 1014.3
20260506024726 58 91 0.9 1.7 0.00 0.02 0.02 82 1014.3
20260506024223 58 137 0.0 0.9 0.00 0.02 0.02 82 1014.6
20260506023719 59 142 0.0 0.9 0.00 0.02 0.02 81 1014.2
20260506023217 59 140 0.0 0.9 0.00 0.02 0.02 80 1014.3
20260506022713 59 93 0.0 0.9 0.00 0.02 0.02 80 1014.2
20260506022211 59 98 0.0 0.9 0.00 0.02 0.02 80 1014.4
20260506021709 59 109 0.9 0.9 0.00 0.02 0.02 80 1014.2
20260506021206 59 97 0.0 0.9 0.00 0.02 0.02 79 1014.1
20260506020703 59 156 0.9 2.6 0.00 0.02 0.02 79 1014.0
20260506020200 59 135 1.7 1.7 0.00 0.02 0.02 80 1013.9
20260506015658 59 108 0.9 1.7 0.00 0.02 0.02 80 1013.8
20260506015155 59 151 1.7 2.6 0.00 0.02 0.02 79 1014.0
20260506014652 59 160 2.6 2.6 0.00 0.02 0.02 79 1013.9
20260506014148 59 152 4.3 5.2 0.00 0.02 0.02 79 1013.9
20260506013646 59 120 0.9 4.3 0.00 0.02 0.02 80 1014.0
20260506013143 59 145 2.6 5.2 0.00 0.02 0.02 79 1013.9
20260506012639 59 158 2.6 4.3 0.00 0.02 0.02 79 1013.9
20260506012136 59 147 2.6 5.2 0.00 0.02 0.02 79 1013.7
20260506011633 59 169 3.5 5.2 0.00 0.02 0.02 79 1013.7
20260506011129 59 148 4.3 6.1 0.00 0.02 0.02 78 1014.0
20260506010628 59 116 2.6 4.3 0.00 0.02 0.02 79 1013.8
20260506010125 59 165 4.3 5.2 0.00 0.02 0.02 78 1013.7
20260506005622 59 138 2.6 4.3 0.00 0.02 0.02 77 1013.8
20260506005118 60 134 3.5 6.1 0.00 0.02 0.02 76 1013.6
20260506004615 60 167 5.2 7.0 0.00 0.02 0.02 76 1013.3
20260506004112 60 166 2.6 6.1 0.00 0.02 0.02 76 1013.5
20260506003608 60 143 2.6 4.3 0.00 0.02 0.02 76 1013.5
20260506003104 60 142 2.6 5.2 0.00 0.02 0.02 76 1013.5
20260506002600 60 128 2.6 4.3 0.00 0.02 0.02 76 1013.5
20260506002057 60 155 2.6 4.3 0.00 0.02 0.02 76 1013.5
20260506001553 60 171 3.5 5.2 0.00 0.02 0.02 74 1013.4
20260506001050 60 152 2.6 6.1 0.00 0.02 0.02 75 1013.3
20260506000547 60 161 3.5 4.3 0.00 0.02 0.02 76 1013.5
20260506000045 60 171 3.5 6.1 0.00 0.02 0.02 75 1013.3
20260505235543 60 132 2.6 4.3 0.00 0.02 0.02 76 1013.4
20260505235039 60 174 2.6 5.2 0.00 0.02 0.02 75 1013.3
20260505234536 60 172 2.6 2.6 0.00 0.02 0.02 76 1013.4
20260505234033 60 171 2.6 5.2 0.00 0.02 0.02 75 1013.4
20260505233531 60 139 2.6 5.2 0.00 0.02 0.02 74 1013.4
20260505233028 60 168 3.5 5.2 0.00 0.02 0.02 74 1013.5
20260505232526 61 166 5.2 6.1 0.00 0.02 0.02 73 1013.4
20260505232023 61 153 2.6 5.2 0.00 0.02 0.02 74 1013.3
20260505231520 61 161 2.6 4.3 0.00 0.02 0.02 74 1013.6
20260505231019 61 152 2.6 5.2 0.00 0.02 0.02 72 1013.7
20260505230515 61 164 2.6 4.3 0.00 0.02 0.02 73 1013.5
20260505230012 61 148 1.7 4.3 0.00 0.02 0.02 72 1013.7
20260505225509 61 168 3.5 5.2 0.00 0.02 0.02 73 1013.8
20260505225005 61 123 0.9 4.3 0.00 0.02 0.02 71 1013.6
20260505224502 61 114 1.7 4.3 0.00 0.02 0.02 70 1013.8
20260505223959 61 130 1.7 2.6 0.00 0.02 0.02 70 1013.9
20260505223456 61 101 0.0 5.2 0.00 0.02 0.02 72 1013.9
20260505222952 61 188 2.6 2.6 0.00 0.02 0.02 71 1014.0
20260505222448 61 153 1.7 2.6 0.00 0.02 0.02 71 1014.1
20260505221944 60 132 2.6 4.3 0.00 0.02 0.02 71 1014.1
20260505221442 60 172 2.6 5.2 0.00 0.02 0.02 72 1014.0
20260505220939 60 146 0.9 2.6 0.00 0.02 0.02 73 1014.0
20260505220436 60 156 2.6 2.6 0.00 0.02 0.02 73 1014.2
20260505215933 60 119 2.6 4.3 0.00 0.02 0.02 74 1014.1
20260505215431 60 149 2.6 5.2 0.00 0.02 0.02 73 1014.0
20260505214929 60 122 3.5 4.3 0.00 0.02 0.02 75 1014.1
20260505214427 60 103 0.9 1.7 0.00 0.02 0.02 76 1014.0
20260505213924 60 161 3.5 4.3 0.00 0.02 0.02 75 1014.0
20260505213421 60 178 2.6 2.6 0.00 0.02 0.02 75 1014.2
20260505212917 59 104 0.0 0.9 0.00 0.02 0.02 75 1014.1
20260505212414 59 168 1.7 4.3 0.00 0.02 0.02 76 1014.1
20260505211910 59 147 2.6 2.6 0.00 0.02 0.02 76 1014.2
20260505211409 59 168 1.7 1.7 0.00 0.02 0.02 76 1014.4
20260505210904 59 170 2.6 2.6 0.00 0.02 0.02 76 1014.2
20260505210402 59 173 1.7 2.6 0.00 0.02 0.02 75 1014.1
20260505205858 59 166 1.7 2.6 0.00 0.02 0.02 74 1014.3
20260505205357 60 169 2.6 2.6 0.00 0.02 0.02 74 1014.2
20260505204853 60 355 0.0 2.6 0.00 0.02 0.02 72 1014.3
20260505204351 60 311 0.9 1.7 0.00 0.02 0.02 72 1014.2
20260505203848 61 233 1.7 2.6 0.00 0.02 0.02 72 1014.3
20260505203344 61 174 2.6 4.3 0.00 0.02 0.02 71 1013.9
20260505202841 62 76 0.0 4.3 0.00 0.02 0.02 70 1014.0
20260505202337 62 182 0.9 2.6 0.00 0.02 0.02 72 1014.1
20260505201834 62 339 1.7 4.3 0.00 0.02 0.02 69 1014.1
20260505201332 61 178 1.7 2.6 0.00 0.02 0.02 73 1014.4
20260505200830 62 175 3.5 6.1 0.00 0.02 0.02 69 1014.2
20260505200326 60 176 1.7 2.6 0.00 0.02 0.02 77 1014.4
20260505195821 59 112 0.9 2.6 0.00 0.02 0.02 77 1014.2
20260505195319 59 135 0.9 1.7 0.00 0.02 0.02 75 1014.4
20260505194816 59 14 1.7 2.6 0.00 0.02 0.02 78 1014.4
20260505194313 59 354 0.9 1.7 0.00 0.02 0.02 77 1014.7
20260505193808 58 162 1.7 1.7 0.00 0.02 0.02 76 1014.7
20260505193307 58 276 2.6 2.6 0.00 0.02 0.02 76 1014.4
20260505192804 58 354 1.7 2.6 0.00 0.02 0.02 78 1014.7
20260505192305 58 146 0.9 2.6 0.00 0.02 0.02 80 1014.9
20260505191800 57 168 0.9 2.6 0.00 0.02 0.02 79 1014.9
20260505191258 57 157 2.6 2.6 0.00 0.02 0.02 80 1014.3
20260505190754 57 224 0.9 1.7 0.00 0.02 0.02 80 1014.6
20260505190249 58 341 2.6 4.3 0.00 0.02 0.02 79 1014.6
20260505185746 57 174 1.7 1.7 0.00 0.02 0.02 79 1014.6
20260505185242 58 197 1.7 5.2 0.00 0.02 0.02 80 1014.6
20260505184738 58 322 2.6 2.6 0.00 0.02 0.02 78 1014.4
20260505184236 57 256 2.6 2.6 0.00 0.02 0.02 80 1014.6
20260505183733 57 186 1.7 4.3 0.00 0.02 0.02 82 1014.6
20260505183230 57 144 0.9 2.6 0.00 0.02 0.02 84 1014.2
20260505182726 56 290 2.6 4.3 0.00 0.02 0.02 85 1014.4
20260505182223 56 250 1.7 1.7 0.00 0.02 0.02 84 1014.6
20260505181720 56 223 1.7 2.6 0.00 0.02 0.02 84 1014.6
20260505181217 55 80 0.0 1.7 0.00 0.02 0.02 86 1014.7
20260505180714 55 258 1.7 2.6 0.00 0.02 0.02 86 1014.4
20260505180210 55 249 1.7 2.6 0.00 0.02 0.02 87 1014.7
20260505175706 55 272 2.6 4.3 0.00 0.02 0.02 87 1014.8
20260505175203 55 4 0.9 1.7 0.00 0.02 0.02 87 1014.8
20260505174659 55 217 0.9 1.7 0.00 0.02 0.02 87 1014.4
20260505174155 55 303 0.9 0.9 0.00 0.02 0.02 88 1014.7
20260505173652 54 119 0.0 1.7 0.00 0.02 0.02 88 1014.6
20260505173149 54 167 0.9 2.6 0.00 0.02 0.02 89 1014.4
20260505172647 54 173 2.6 2.6 0.00 0.02 0.02 89 1014.4
20260505172144 54 164 1.7 2.6 0.00 0.02 0.02 92 1014.3
20260505171643 53 106 0.9 1.7 0.00 0.02 0.02 93 1014.6
20260505171141 53 171 0.9 0.9 0.00 0.02 0.02 93 1014.4
20260505170638 53 94 0.0 2.6 0.00 0.02 0.02 93 1014.4
20260505170134 53 269 1.7 2.6 0.00 0.02 0.02 92 1014.7
20260505165629 52 204 0.0 1.7 0.00 0.02 0.02 92 1014.6
20260505165126 52 1 0.9 1.7 0.00 0.02 0.02 92 1014.7
20260505164621 52 272 0.9 1.7 0.00 0.02 0.02 92 1014.4
20260505164119 53 343 0.0 1.7 0.00 0.02 0.02 93 1014.6
20260505163617 52 8 0.9 1.7 0.00 0.02 0.02 93 1014.4
20260505163114 52 310 1.7 1.7 0.00 0.02 0.02 93 1014.6
20260505162612 52 305 0.0 0.9 0.00 0.02 0.02 93 1014.3
20260505162109 52 323 0.9 0.9 0.00 0.02 0.02 94 1014.3
20260505161606 52 281 0.9 0.9 0.00 0.02 0.02 95 1014.2
20260505161103 52 166 0.9 1.7 0.00 0.02 0.02 95 1014.3
20260505160601 51 85 0.0 0.9 0.00 0.02 0.02 95 1014.2
20260505153038 51 184 0.0 0.9 0.00 0.02 0.02 96 1014.1
20260505152534 51 176 0.9 0.9 0.00 0.02 0.02 96 1013.9
20260505152030 51 176 0.0 0.9 0.00 0.02 0.02 96 1014.1
20260505151531 51 176 0.9 1.7 0.00 0.02 0.02 96 1013.9
20260505151029 51 169 0.0 1.7 0.00 0.02 0.02 96 1013.8
20260505150525 51 162 0.9 0.9 0.00 0.02 0.02 96 1013.9
20260505140450 50 159 0.0 0.9 0.00 0.02 0.02 96 1013.5
20260505124903 50 162 0.0 0.0 0.00 0.02 0.02 96 1012.9
20260505124400 50 162 0.0 0.9 0.00 0.02 0.02 96 1013.0
20260505123856 50 162 0.0 0.0 0.00 0.02 0.02 96 1013.1
20260505123353 50 162 0.0 0.9 0.00 0.02 0.02 96 1013.0
20260505122849 50 162 0.0 0.0 0.00 0.02 0.02 95 1013.0
20260505122346 50 162 0.0 0.0 0.00 0.02 0.02 95 1013.1
20260505121843 50 162 0.0 0.9 0.00 0.02 0.02 95 1013.1
20260505121340 50 158 0.9 0.9 0.00 0.02 0.02 95 1013.2
20260505120836 50 159 0.0 0.9 0.00 0.02 0.02 95 1013.1
20260505120332 50 159 0.0 0.9 0.00 0.02 0.02 95 1013.0
20260505115831 50 160 0.0 0.9 0.00 0.02 0.02 95 1012.8
20260505115328 50 160 0.0 0.0 0.00 0.02 0.02 95 1012.7
20260505114826 51 160 0.0 0.9 0.00 0.02 0.02 95 1012.8
20260505114322 50 161 0.9 0.9 0.00 0.02 0.02 95 1012.8
20260505113819 50 161 0.9 0.9 0.00 0.02 0.02 95 1012.9
20260505113315 50 152 0.9 1.7 0.00 0.02 0.02 94 1013.1
20260505112811 51 132 0.0 0.9 0.00 0.02 0.02 94 1013.1
20260505112309 51 132 0.0 0.0 0.00 0.02 0.02 94 1013.0
20260505111804 51 135 0.9 0.9 0.00 0.02 0.02 94 1013.1
20260505111300 51 133 0.0 0.9 0.00 0.02 0.02 94 1013.0
20260505110756 51 91 0.0 0.9 0.00 0.02 0.02 94 1012.9
20260505110254 51 53 0.9 0.9 0.00 0.02 0.02 93 1013.0
20260505101728 51 69 0.0 0.0 0.00 0.02 0.02 89 1012.7
20260505101224 51 81 0.0 0.0 0.00 0.02 0.02 89 1012.8
20260505100720 51 82 0.0 0.0 0.00 0.02 0.02 89 1012.8
20260505100217 51 78 0.0 0.0 0.00 0.02 0.02 89 1012.5
20260505095712 51 91 0.0 0.0 0.00 0.02 0.02 89 1012.9
20260505095211 52 93 0.0 0.0 0.00 0.02 0.02 89 1012.7
20260505094706 52 98 0.0 0.9 0.00 0.02 0.02 89 1012.5
20260505094203 51 100 0.9 0.9 0.00 0.02 0.02 89 1012.9
20260505093659 51 75 0.0 0.0 0.00 0.02 0.02 89 1012.7
20260505093157 51 89 0.0 0.9 0.00 0.02 0.02 90 1012.9
20260505092653 51 76 0.0 0.0 0.00 0.02 0.02 90 1012.9
20260505092152 51 45 0.9 1.7 0.00 0.02 0.02 90 1012.9